This demonstration page uses our WeatherBlox Daily Observations layout. Learn more.

Left ArrowRight Arrow

Hourly Observations for February 1, 2015

Temp ( °F °C ) Dew Point ( °F °C ) Humidity (%) Winds ( mph kmh ) Pressure ( in mb ) Visibility ( mi km ) Precip ( " mm )
12:13 am 00:13 Cloudy with Mist and Fog 48 8.9 44 6.7 86 86 S 7 11 29.88 1012 2 3 0.00 0.00
12:20 am 00:20 Mostly Cloudy with Fog 48 9 45 7 87 87 S 7 11 29.88 1012 0 0 0.00 0.00
12:53 am 00:53 Mostly Cloudy with Fog 46 7.8 43 6.1 89 89 SSW 5 7 29.84 1011 0 0 0.00 0.00
1:06 am 01:06 Mostly Cloudy with Fog 46 8 43 6 87 87 Calm 29.88 1012 1 1 0.00 0.00
1:16 am 01:16 Mostly Cloudy with Fog 45 7 43 6 93 93 S 3 6 29.88 1012 0 0 0.00 0.00
1:53 am 01:53 Mostly Cloudy with Fog 44 6.7 41 5 89 89 Calm 29.84 1011 0 0 0.00 0.00
2:53 am 02:53 Mostly Cloudy with Fog 43 6.1 41 5 93 93 Calm 29.83 1010 0 0 0.00 0.00
3:53 am 03:53 Mostly Cloudy with Fog 42 5.6 39 3.9 89 89 SW 3 6 29.84 1010 0 0 0.00 0.00
4:20 am 04:20 Mostly Cloudy with Fog 41 5 37 3 87 87 Calm 29.91 1013 1 1 0.00 0.00
4:32 am 04:32 Mostly Cloudy with Mist and Fog 41 5 37 3 87 87 Calm 29.91 1013 2 3 0.00 0.00
4:43 am 04:43 Cloudy with Mist and Fog 40 4.4 37 2.8 89 89 ESE 3 6 29.91 1013 3 5 0.00 0.00
4:50 am 04:50 Cloudy with Mist and Fog 41 5 37 3 87 87 Calm 29.91 1013 2 3 0.00 0.00
4:51 am 04:51 Cloudy with Mist and Fog 41 5 37 3 87 87 Calm 29.91 1013 2 2 0.00 0.00
5:03 am 05:03 Mostly Cloudy with Mist and Fog 41 5 37 3 87 87 E 3 6 29.91 1013 1 1 0.00 0.00
5:19 am 05:19 Mostly Cloudy with Fog 41 5 38 3.3 89 89 N 6 9 29.94 1014 0 0 0.00 0.00
5:53 am 05:53 Mostly Cloudy with Fog 41 5 39 3.9 93 93 N 6 9 29.87 1012 0 0 0.00 0.00
6:53 am 06:53 Mostly Cloudy with Fog 40 4.4 38 3.3 93 93 NNE 7 11 29.91 1013 0 0 0.00 0.00
7:53 am 07:53 Mostly Cloudy with Fog 41 5 38 3.3 89 89 N 8 13 29.93 1014 0 0 0.00 0.00
8:53 am 08:53 Mostly Cloudy with Fog 42 5.6 39 3.9 89 89 N 7 11 29.96 1015 0 0 0.00 0.00
9:20 am 09:20 Mostly Cloudy with Mist and Fog 45 7 41 5 87 87 N 13 20 30.06 1018 1 2 0.00 0.00
9:26 am 09:26 Cloudy with Mist and Fog 45 7 43 6 93 93 N 8 13 30.06 1018 3 5 0.00 0.00
9:39 am 09:39 Mostly Cloudy 47 8.3 43 6.1 86 86 N 12 19 30.03 1017 10 16 0.00 0.00
9:53 am 09:53 Mostly Sunny 48 8.9 42 5.6 80 80 N 16 26 30.00 1016 10 16 0.00 0.00
10:53 am 10:53 Partly Cloudy 51 10.6 40 4.4 66 66 NNE 20 31 30.03 1017 10 16 0.00 0.00
11:53 am 11:53 Mostly Cloudy 53 11.7 40 4.4 61 61 NE 18 30 30.05 1018 10 16 0.00 0.00
12:14 pm 12:14 Partly Cloudy 54 12 39 4 58 58 ENE 16 26 30.06 1018 10 16 0.00 0.00
12:53 pm 12:53 Mostly Cloudy 54 12.2 39 3.9 57 57 NE 14 22 30.05 1018 10 16 0.00 0.00
1:53 pm 13:53 Cloudy 54 12.2 38 3.3 55 55 NE 9 15 30.06 1018 10 16 0.00 0.00
2:53 pm 14:53 Cloudy 53 11.7 37 2.8 55 55 NNE 13 20 30.08 1019 10 16 0.00 0.00
3:53 pm 15:53 Cloudy 52 11.1 36 2.2 55 55 NNE 10 17 30.10 1019 10 16 0.00 0.00
4:53 pm 16:53 Cloudy 52 11.1 35 1.7 53 53 ENE 8 13 30.10 1019 10 16 0.00 0.00
5:53 pm 17:53 Cloudy 54 12 46 8 77 77 Calm 29.80 1009 10 16 0.00 0.00
6:53 pm 18:53 Cloudy 50 10 35 1.7 57 57 E 8 13 30.14 1021 10 16 0.00 0.00
7:53 pm 19:53 Clear 46 7.8 35 1.7 66 66 E 6 9 30.17 1022 10 16 0.00 0.00
8:53 pm 20:53 Cloudy 46 7.8 35 1.7 66 66 ENE 8 13 30.21 1023 10 16 0.00 0.00
9:53 pm 21:53 Mostly Cloudy 44 6.7 34 1.1 68 68 E 9 15 30.22 1024 10 16 0.00 0.00
10:53 pm 22:53 Cloudy 43 6.1 33 0.6 68 68 E 9 15 30.23 1024 10 16 0.00 0.00
11:53 pm 23:53 Cloudy 43 6.1 31 -0.6 63 63 E 9 15 30.25 1024 10 16 0.00 0.00

Powered by AerisWeather